map of BIE home
BIE - Airport
Location
City:  Beatrice, Nebraska, United States
Name:Beatrice Municipal Airport
ICAO:KBIE
IATA:BIE
FAA LID:BIE

Details
Type:Airport (Airfield)
Use:Public/Civil
Latitude:4018'05"N (40.301278)
Longitude:9645'15"W (-96.754110)
Datum:WGS 1984
Elevation:1323 ft (403 m)
Variation:3.10E (WMM2015 magnetic declination)
-0.10 annual change
Runways:2
Longest:5602 × 100 ft (1707 × 30.5 m), paved

Time
Time Zone:UTC-6 (DST-5)
Local Time:

Weather
METAR:KBIE 190315Z AUTO 12005KT 10SM CLR 25/21 A2995 RMK AO2 T02460211

Related Locations
Nearby:
Farthest:YAUG: 10647 mi / 17135 km
Augusta [Augusta Airport], WA, AU

Find:

   beyond  
but within

Other Information
Maps:
NOTAMs:
Links:
Sources:

  
  • flag of United States
  • flag of Nebraska
  

Sectional Chart

Flight Planning
at skyvector.com

Satellite Image

Google Maps Satellite view

 

Copyright © 2004-2018 Karl L. Swartz. All rights reserved.
The Great Circle Mapper name and logo are trademarks of the Great Circle Mapper.
All other trademarks mentioned herein belong to their respective owners.
Please see credits for attibutions and further copyright information.

  Follow gcmap on Facebook Follow gcmap on Twitter Follow gcmap on Google+ GCmap on LinkedIn

hCard Microformat

Geo Microformat